Ana Sayfa
METAR-TAF:

METAR-TAF

Havaalanları :

Flora Municipal Airport

Flora, Illinois, Amerika Birleşik Devletleri

Enlem: 38-39-54N, Boylam: 088-27-11W, yükseklik: 144 m

Güncel hava durumu gözlemi

Rapor saat 11:35 UTC de 26 dakika önce yapıldı.
Rüzgar güney/güneydoğudan 9 kt
Sıcaklık 24°C
Nem 74%
Basınç 1013 hPa
Görüş mesafesi: 16.1 km
Açık gökyüzü

METAR: KFOA 251135Z AUTO 16009KT 10SM CLR 24/19 A2992 RMK AO2

Saat: 07:01 (12:01 UTC)


TAF: eksik

4.000'den fazla havaalanı için hava durumu gözlemleri ve tahminleri (METAR ve TAF raporları).

Kullanılabilir istasyonlar harita üzerinde sarı ve kırmızı noktalarla gösterilir.

İstasyonun adını görmek için fareyi noktanın üzerinde gezdirin.

Sonrasında hava gözlem ve tahminlerini görmek için tıklayın.

Haritayı değiştirmek için: yaklaştırmak için siyah artı işaretli yeşil düğmeye ve uzaklaştırmak için de eksi işaretli düğmeye hızla tıklayın; bitişik haritalar için yeşil okları kullanın.


METAR-TAF: